Broken Bow, NE

12:18 PM CDT on March 30, 2017 (GMT -0500)
Broken Bow Municipal

Weather History for KBBW - June, 2013

Change the Weather History Date:

Thursday, June 13, 2013

  Actual Average Record
Temperature  
Mean Temperature 64 °F 68 °F  
Max Temperature 77 °F 80 °F 101 °F (1968)
Min Temperature 50 °F 56 °F 36 °F (1946)
Degree Days  
Heating Degree Days 1 2  
Month to date heating degree days 41 31  
Since 1 June heating degree days 41 31  
Cooling Degree Days 0 4  
Month to date cooling degree days 25 43  
Year to date cooling degree days 60 77  
Since 1 June cooling degree days 25 43  
Growing Degree Days 14 (Base 50)    
Moisture  
Dew Point 52 °F    
Average Humidity 68    
Maximum Humidity 96    
Minimum Humidity 40    
Precipitation  
Precipitation 0.00 in 0.14 in 2.14 in (2010)
Sea Level Pressure  
Sea Level Pressure 30.06 in    
Wind  
Wind Speed 9 mph (ESE)    
Max Wind Speed 20 mph    
Max Gust Speed 26 mph    
Visibility 10 miles    
Events      
T = Trace of Precipitation, MM = Missing Value Source: NWS Daily Summary

Daily Weather History Graph

Daily Weather History Graph

Search for Another Location

Airport or City:

Trip Planner

Search our weather history database for the weather conditions in past years. The results will help you decide how hot, cold, wet, or windy it might be!

Date:

Astronomy

Jun. 13, 2013 Rise Set
Actual Time 6:04 AM CDT 9:13 PM CDT
Civil Twilight 5:30 AM CDT 9:47 PM CDT
Nautical Twilight 4:47 AM CDT 10:30 PM CDT
Astronomical Twilight 3:55 AM CDT 11:22 PM CDT
Moon 10:45 AM CDT (6/13) No Moon Set
Length of Visible Light 16h 16m
Length of Day
15h 08m
Waxing Crescent, 22% of the Moon is Illuminated
Jun 13
Waxing Crescent
Jun 16
First Quarter
Jun 23
Full
Jun 29
Last Quarter
Jul 8
New

Hourly Weather History & Observations

Time (CDT) Temp. Dew Point Humidity Pressure Visibility Wind Dir Wind Speed Gust Speed Precip Events Conditions
12:53 AM 55.0 °F 51.1 °F 86% 30.10 in 10.0 mi NE 5.8 mph - N/A   Clear
1:53 AM 55.0 °F 51.1 °F 86% 30.08 in 10.0 mi NE 5.8 mph - N/A   Clear
2:53 AM 53.1 °F 51.1 °F 93% 30.11 in 10.0 mi NNW 3.5 mph - N/A   Clear
3:53 AM 51.1 °F 50.0 °F 96% 30.11 in 10.0 mi West 3.5 mph - N/A   Clear
4:53 AM 51.1 °F 48.9 °F 92% 30.13 in 10.0 mi Calm Calm - N/A   Clear
5:53 AM 53.1 °F 51.1 °F 93% 30.12 in 10.0 mi NNE 6.9 mph - N/A   Clear
6:53 AM 54.0 °F 51.1 °F 90% 30.12 in 10.0 mi ENE 5.8 mph - N/A   Clear
7:53 AM 57.9 °F 53.1 °F 84% 30.13 in 10.0 mi East 6.9 mph - N/A   Scattered Clouds
8:53 AM 61.0 °F 52.0 °F 72% 30.11 in 10.0 mi East 10.4 mph - N/A   Clear
9:53 AM 64.9 °F 52.0 °F 63% 30.12 in 10.0 mi SE 10.4 mph - N/A   Clear
10:53 AM 66.0 °F 52.0 °F 60% 30.12 in 10.0 mi SE 6.9 mph - N/A   Partly Cloudy
11:53 AM 69.1 °F 52.0 °F 54% 30.12 in 10.0 mi ESE 8.1 mph - N/A   Clear
12:53 PM 69.1 °F 51.1 °F 53% 30.11 in 10.0 mi SE 6.9 mph - N/A   Clear
1:53 PM 73.0 °F 51.1 °F 46% 30.07 in 10.0 mi SSE 10.4 mph 21.9 mph N/A   Clear
2:53 PM 75.0 °F 51.1 °F 43% 30.04 in 10.0 mi SE 10.4 mph 19.6 mph N/A   Clear
3:53 PM 77.0 °F 52.0 °F 42% 30.03 in 10.0 mi SE 16.1 mph 19.6 mph N/A   Clear
4:53 PM 75.0 °F 53.1 °F 46% 30.01 in 10.0 mi ESE 17.3 mph 24.2 mph N/A   Clear
5:53 PM 75.0 °F 52.0 °F 44% 29.97 in 10.0 mi ESE 17.3 mph 25.3 mph N/A   Clear
6:53 PM 75.0 °F 53.1 °F 46% 29.96 in 10.0 mi ESE 16.1 mph 26.5 mph N/A   Clear
7:53 PM 73.0 °F 54.0 °F 51% 29.94 in 10.0 mi ESE 11.5 mph 23.0 mph N/A   Clear
8:53 PM 68.0 °F 55.9 °F 65% 29.94 in 10.0 mi ESE 6.9 mph - N/A   Clear
9:53 PM 66.9 °F 55.9 °F 68% 29.94 in 10.0 mi SE 8.1 mph - N/A   Clear
10:53 PM 68.0 °F 55.9 °F 65% 30.01 in 10.0 mi South 6.9 mph - N/A   Scattered Clouds
11:53 PM 64.9 °F 57.0 °F 75% 29.99 in 10.0 mi South 8.1 mph - N/A   Partly Cloudy